Voltar ao catálogo

STARLINK-32924

AtivoComunicaçõesVLEO
NORAD 63092·PAYLOAD·🇺🇸 United States

Lançado Feb 23, 2025 de Vandenberg Space Force Base

Loading…

Próximas Passagens (próximas 24 horas)

TLE

AtualizadoSource: CelesTrak SupGP

Época: Sep 14, 2026, 23:08 UTC

1 63092C 25037R   26257.96437500  .00005247  00000+0  18251-3 0  2577
2 63092  70.0013 235.4585 0003301 266.7897 247.5373 15.29580523    19

Acompanhe STARLINK-32924 em tempo real com AllMySat

Download on the App Store